Cloud_Cover
100 100 100 100 100 100 100 100 100 100 100 100 47 6 71 100 100 100 100 98 96 96 100 87 100 100 100 100 100 100 100 100 100 83 93 62 28 3 0 0 5 5 5 4 1
100 100 100 100 100 100 100 100 100 100 100 100 100 97 26 59 90 100 100 100 96 100 100 70 52 100 100 100 100 100 100 100 100 100 100 100 100 4 1 0 2 5 5 5 5
100 100 100 100 100 100 100 100 100 100 100 100 100 100 100 69 75 64 100 100 100 96 100 100 100 100 100 100 100 100 100 100 100 100 100 100 100 10 1 4 19 16 5 5 5
100 100 100 100 100 100 100 100 100 100 100 100 100 100 100 99 81 86 100 67 100 100 100 100 100 90 100 100 100 100 100 100 100 100 100 100 100 5 2 20 98 100 100 12 5
100 100 100 100 100 100 100 100 100 100 100 100 100 100 100 100 90 96 58 77 91 100 100 100 100 100 99 100 100 100 100 100 100 100 100 100 100 100 4 5 12 100 100 100 60
100 99 100 100 100 100 100 100 100 100 100 100 100 100 94 84 71 100 100 100 96 99 100 100 100 100 100 100 100 100 100 100 100 100 100 100 100 100 84 5 16 56 96 100 100
100 79 100 100 100 100 100 100 100 100 100 100 100 100 100 100 45 99 100 100 100 99 94 100 100 100 100 100 100 100 100 100 100 100 100 100 100 100 98 86 23 7 5 95 100
100 100 100 100 100 100 100 100 100 100 100 100 100 100 97 100 75 85 99 100 100 100 71 91 100 100 100 100 100 100 99 96 100 100 100 100 100 100 100 100 100 21 5 71 100
100 100 100 100 100 100 100 100 100 100 100 100 100 100 97 100 98 94 99 100 100 100 26 5 65 98 100 100 95 80 99 97 100 100 100 100 100 100 100 100 100 99 57 71 100
100 100 100 100 100 100 100 100 100 100 100 100 100 100 100 100 100 100 100 100 100 92 97 51 73 50 100 100 58 96 100 100 75 79 76 100 100 100 100 100 100 100 100 86 35
100 100 100 100 100 100 100 100 100 100 100 100 100 100 100 100 100 100 100 100 100 100 76 82 51 43 100 100 100 100 71 72 100 75 94 100 100 100 100 100 100 100 100 100 100
100 100 100 100 100 100 100 100 100 100 100 100 100 100 100 100 100 100 100 100 100 100 100 100 100 100 99 97 100 100 100 92 96 98 100 100 100 100 100 100 100 100 100 100 100
100 100 100 100 100 100 100 100 100 100 100 100 89 96 100 100 100 100 100 100 100 100 100 100 100 100 100 51 35 100 100 100 83 100 83 98 100 97 100 100 100 100 100 100 100
97 100 100 100 100 100 100 100 100 100 100 100 100 39 99 89 100 100 100 100 100 100 100 100 100 100 96 34 57 84 91 100 100 70 5 10 66 100 26 100 81 54 100 100 100
100 96 100 100 100 100 100 100 100 100 100 100 100 79 27 78 96 100 87 71 100 100 100 100 100 100 100 100 98 32 100 84 100 100 86 100 100 100 100 100 100 100 100 75 100
100 100 100 100 100 100 100 100 100 100 100 100 100 99 99 71 100 100 100 63 99 100 100 100 100 100 100 100 100 100 100 71 95 88 39 100 93 100 100 100 100 99 100 65 93
100 90 100 100 100 100 100 100 100 100 100 100 100 100 100 100 100 100 100 100 100 100 90 36 100 100 100 100 100 100 100 100 69 74 42 100 71 42 100 100 100 30 52 76 68
100 100 100 100 100 100 100 100 100 100 100 100 100 100 100 100 100 100 100 100 100 99 100 100 100 100 100 100 100 100 100 100 87 5 6 83 100 80 100 100 100 93 17 5 5
82 65 100 100 93 100 100 100 100 100 100 100 100 100 100 99 100 100 100 100 100 100 100 100 100 100 100 100 100 94 32 89 34 6 22 91 100 100 100 100 100 100 100 100 100
58 46 9 52 100 100 100 100 100 100 100 100 100 100 100 100 97 100 100 100 100 100 100 100 100 100 100 100 94 85 100 66 5 21 85 100 100 100 100 100 100 100 100 100 100
94 87 5 87 100 100 100 100 100 100 100 100 100 99 82 100 96 100 100 100 100 100 100 100 100 100 100 100 100 100 96 100 89 26 88 58 98 100 100 100 100 100 100 38 40
97 98 11 100 100 100 100 100 100 100 100 100 100 100 100 100 100 100 100 100 100 100 100 100 100 100 100 100 100 100 99 75 84 94 71 60 54 7 79 100 100 100 100 100 100
100 100 100 100 80 100 100 100 100 100 100 100 100 100 100 100 100 100 100 100 100 100 100 100 100 100 100 100 100 100 100 100 100 85 7 64 39 100 70 100 100 70 54 100 94
100 100 100 100 34 100 100 100 100 100 100 100 100 100 100 100 73 97 100 100 100 100 100 100 100 100 100 100 100 100 100 83 43 34 29 71 63 56 27 21 66 28 5 5 6
100 99 93 100 100 100 100 100 100 100 100 100 100 99 100 100 93 100 100 100 100 100 100 100 100 100 100 100 100 100 99 56 9 38 14 73 20 88 5 4 2 5 5 5 5
100 92 97 6 5 36 100 100 100 100 100 100 100 100 100 100 69 100 100 100 100 100 100 100 100 100 100 100 100 100 100 100 18 13 100 93 93 54 5 4 5 11 6 60 35
100 99 6 37 32 5 4 3 100 100 100 100 100 100 100 100 100 100 100 100 100 100 100 99 96 100 100 100 100 100 100 100 100 100 84 12 85 5 5 5 5 6 5 5 5